VANGUARD DEB, 1576

Orbit data source: Space-Track

VANGUARD DEB, 1576 is space debris in LEO originally from a launch on Mon, 17 Mar 1958 UTC launched from the Air Force Eastern Test Range (AFETR). Debris objects in space refer to the collection of defunct objects orbiting the Earth. Examples of debris include non-operational satellites, rocket bodies, and fragments generated from explosions, collisions, or faulty payload assembly.

Loading next visibility...
Identifier
1576, 1958-002C
Orbit
LEO
Country
Flag of USUS
Related business
Manufacturer
NRL
Mission
Spacecraft
Bus & Motor
Unknown
Mass
Unknown
Launch date (UTC)
1958-03-17 (68 years ago)
Launch vehicle
Unknown
Launch site
Air Force Eastern Test Range (AFETR)
Object type
Payload
Rocket body
Debris
Shape & HBR
Unknown shape, 0.1 m
Radar Cross Section
Small (<0.1 m²)

Expand to show TLE details & history
Last TLE update: 23 hours ago

TLE from 23 hours ago
0 VANGUARD DEB
1 01576U 58002C   25294.30483633  .00001020  00000-0  87876-3 0  9998
2 01576  34.2262 262.8695 1396317 182.9224 176.2430 11.82090418773820
Epoch: 2025-10-21T07:18Z
TLE epoch observation values (Epoch: 2025-10-21T07:18:57.858Z)
Latitude
-0.00005°
Longitude
123.13365°
Altitude
2,895.569 km
Speed
6.085 km/s
True Right ascension
17h 31m 28s
True Declination
0° 00' 00"
Sunlit
Object was in daylight at epoch
Visualization orbit readout
Latitude
Unknown
Longitude
Unknown
Altitude
Unknown
Speed
Unknown
Apparent Right ascension
Unknown
Apparent Declination
Unknown
Sunlit
N/A
Visualization observer readout
Local Sidereal Time
01:06:11
Azimuth
Unknown
Elevation
Unknown
Doppler factor
Unknown
Orbital elements
Apogee altitude
2,902.029 km
Perigee altitude
627.951 km
Semi-major axis
8,143.127 km
Eccentricity
0.13963
Inclination
34.2262°
RAAN
262.8695°
Arg. of periapsis
182.9224°
True anomaly
177.13519°
Mean anomaly
176.243°
Eccentric anomaly
176.7031°
Mean motion
2.95363 °/min
Orbital period
121.88 mins
BSTAR
0.00087876
Loading maneuver chart data...
Computing Atmospheric mass density...
Loading historical data...
Loading historical data...
Loading historical data...
Loading historical data...
Loading historical data...
Loading historical data...
Loading historical data...
Other satellites on launch #2 in the year 1958 (1958-03-17 UTC)

Documentation

Showing up to 5 results
|